STARLINK-34982 (65243 NORAD) Tracking and Keplerian Element Data

This shows tracking and keplerian element data for the satellite.

Feedback or suggestion? Click here.




ElementValue
Catalog65243
NameSTARLINK-34982
Epoch Orbit1999
Epoch Day354.05949693
Epoch Year2025
RAAN34.4267
Inclination97.6041
Eccentricity6E-05
Argument of Perigee177.147
Mean Anonmoly182.976
Mean Motion15.05650732
Decay Rate2.783E-05
L11 65243U 25179J 25354.05949693 .00002783 00000+0 19700-3 0 9997
L22 65243 97.6041 34.4267 0000600 177.1470 182.9760 15.05650732 19993



Live tracking and technical data element details for STARLINK-34982 (NORAD 65243). STARLINK-34982 can be tracked NOW for your location showing map with azimuth and elevation plus other details from your city location.







IsCatalogInMostPopularTable: catalog: 65243, numindb: 7
Update: records affected: 1



GetName: 65243 STARLINK-34982

Hit Count: updated at: Sat, 11 Apr 2026 21:40:08 GMT